CW2313 Weather Reports


Display with metric or nautical units.
time (UTC)temp
F
wind
direction
speed
MPH
gust
MPH
rain 1hr
in
rain 24hr
in
rain mn
in
humidity
%
barometer
mb
20260505004518 62 41 0.0 0.0 0.00 0.00 0.00 44 1013.6
20260505003016 62 25 0.0 0.0 0.00 0.00 0.00 43 1013.5
20260505001559 63 252 0.0 0.0 0.00 0.00 0.00 42 1013.5
20260505000108 63 68 0.0 0.0 0.00 0.00 0.00 43 1013.5
20260504234540 63 287 0.0 0.0 0.00 0.00 0.00 41 1013.5
20260504233040 64 206 0.0 0.0 0.00 0.00 0.00 40 1013.5
20260504231522 63 44 0.0 0.0 0.00 0.00 0.00 39 1013.5
20260504230022 64 28 0.0 0.0 0.00 0.00 0.00 38 1013.6
20260504224504 64 60 0.0 0.0 0.00 0.00 0.00 37 1013.8
20260504223002 63 259 0.0 0.0 0.00 0.00 0.00 37 1013.8
20260504221547 62 359 0.0 0.0 0.00 0.00 0.00 38 1013.9
20260504220050 63 327 0.0 0.0 0.00 0.00 0.00 39 1013.9
20260504214530 63 29 0.0 0.0 0.00 0.00 0.00 41 1014.1
20260504213029 63 96 0.0 0.0 0.00 0.00 0.00 44 1014.2
20260504211507 63 137 0.0 0.0 0.00 0.00 0.00 43 1014.3
20260504210007 63 30 0.0 0.0 0.00 0.00 0.00 42 1014.3
20260504204559 63 301 0.0 0.0 0.00 0.00 0.00 42 1014.3
20260504203049 63 277 0.0 0.0 0.00 0.00 0.00 40 1014.4
20260504201532 63 22 0.0 0.0 0.00 0.00 0.00 40 1014.4
20260504200029 62 293 0.0 1.0 0.00 0.00 0.00 43 1014.3
20260504194512 62 221 0.0 1.0 0.00 0.00 0.00 42 1014.4
20260504193011 62 37 0.0 0.0 0.00 0.00 0.00 41 1014.3
20260504191554 61 92 0.0 0.0 0.00 0.00 0.00 49 1014.4
20260504190105 61 360 0.0 0.0 0.00 0.00 0.00 52 1014.4
20260504184536 61 85 0.0 0.0 0.00 0.00 0.00 52 1014.3
20260504183041 61 167 0.0 0.0 0.00 0.00 0.00 49 1014.4
20260504181519 61 89 0.0 0.0 0.00 0.00 0.00 50 1014.3
20260504180017 61 6 0.0 0.0 0.00 0.00 0.00 49 1014.3
20260504174559 61 177 0.0 0.0 0.00 0.00 0.00 52 1014.2
20260504173059 61 33 0.0 0.0 0.00 0.00 0.00 50 1014.3
20260504171541 61 343 0.0 0.0 0.00 0.00 0.00 48 1014.2
20260504081505 49 41 0.0 0.0 0.00 0.00 0.00 60 1014.8
20260504050015 54 66 0.0 0.0 0.00 0.00 0.00 52 1015.3
20260504044518 54 320 0.0 0.0 0.00 0.00 0.00 51 1015.3
20260504043103 55 37 0.0 0.0 0.00 0.00 0.00 51 1015.3
20260504041558 55 22 0.0 0.0 0.00 0.00 0.00 51 1015.3
20260504040039 55 18 0.0 0.0 0.00 0.00 0.00 51 1015.2
20260504034544 55 37 0.0 0.0 0.00 0.00 0.00 53 1015.1
20260504033021 55 41 0.0 0.0 0.00 0.00 0.00 51 1015.0
20260504031521 55 21 0.0 0.0 0.00 0.00 0.00 51 1015.0
20260504030004 56 21 0.0 0.0 0.00 0.00 0.00 49 1015.0
20260504024502 57 77 0.0 0.0 0.00 0.00 0.00 47 1015.1
20260504023043 59 27 0.0 0.0 0.00 0.00 0.00 43 1015.2
20260504021542 59 84 0.0 0.0 0.00 0.00 0.00 41 1015.3
20260504020024 60 298 0.0 1.0 0.00 0.00 0.00 40 1015.4
20260504014533 60 333 0.0 0.0 0.00 0.00 0.00 40 1015.5
20260504013006 61 306 0.0 0.0 0.00 0.00 0.00 40 1015.6
20260504011506 61 335 0.0 4.0 0.00 0.00 0.00 39 1015.7
20260504010054 62 330 0.0 1.0 0.00 0.00 0.00 40 1015.8